Regional Weather Roundup
Issued by NWS

Home | Current Version | Previous Version | Text Only | Print | Product List | Glossary Off
Versions: 1 2 3 4 5 6 7 8 9 10 11 12 13 14 15 16 17 18 19 20 21 22 23 24 25 26 27 28 29 30 31 32 33 34 35 36 37 38 39 40 41 42 43 44 45 46 47 48 49 50

000
ASUS43 KDTX 030410
RWRMI
MICHIGAN HOURLY REGIONAL WEATHER ROUNDUP
NATIONAL WEATHER SERVICE DETROIT/PONTIAC MI
1200 AM EDT SUN MAY 03 2015

NOTE: "FAIR" INDICATES FEW OR NO CLOUDS BELOW 12,000 FEET WITH NO
SIGNIFICANT WEATHER AND/OR OBSTRUCTION TO VISIBILITY.

MIZ047>049-052>055-059>063-066>070-074>076-081>083-030500-
SOUTHEAST LOWER MICHIGAN

CITY           SKY/WX    TMP DP  RH WIND       PRES   REMARKS
ADRIAN         CLEAR     60  38  43 W5        30.03S
ALMA           CLEAR     52  41  67 CALM      29.98F
ANN ARBOR      CLEAR     49  43  80 CALM      30.02S
BAD AXE        CLEAR     58  37  46 SW5       29.97F
CARO           CLEAR     48  40  72 CALM      29.98S
DETROIT CITY   CLEAR     60  43  53 SW3       30.01S
DETROIT        PTCLDY    58  44  60 CALM      30.02S
FLINT          MOCLDY    53  40  61 S3        30.00S
GROSSE ILE     CLEAR     55  50  82 S3        30.00S
HILLSDALE      CLEAR     56  39  53 CALM      30.03S
HOWELL         PTCLDY    53  38  56 CALM      30.00F

CITY           SKY/WX    TMP DP  RH WIND       PRES   REMARKS
JACKSON        CLEAR     54  41  61 CALM      30.02S
LAMBERTVILLE   CLEAR     55  43  62 CALM      30.03S
LANSING        CLEAR     55  35  47 CALM      30.00F
LAPEER         FAIR      50  40  68 CALM      30.00S
MASON          CLEAR     50  39  67 S6        30.01S
MONROE         CLEAR     54  48  82 CALM      30.00F
PONTIAC        PTCLDY    57  39  51 CALM      30.00S
PORT HOPE        N/A     58  40  51 SW5       29.95S
PORT HURON     CLEAR     54  43  66 CALM      30.01R
TRI CITIES     CLEAR     60  35  39 SW7       29.98F
MIDLAND        FAIR      57  35  42 CALM      29.96F
TROY           CLEAR     63  41  45 SW5       30.03S
SAGINAW HB     CLEAR     55  36  47 S5        29.98S
$$
MIZ043>046-050>051-056>058-064>065-071>073-077>080-030500-
SOUTHWEST LOWER MICHIGAN

CITY           SKY/WX    TMP DP  RH WIND       PRES   REMARKS
BATTLE CREEK   CLEAR     53  40  61 S5        30.01S
BENTON HARBOR  PTCLDY    51  40  65 SE5       29.99S
BIG RAPIDS     CLEAR     55  35  48 SE3       29.96F
COLDWATER      CLEAR     55  41  60 CALM      30.02S
FREMONT        FAIR      56  31  38 S3        29.96F
HOLLAND        PTCLDY    55  39  54 S7        29.98F
GRAND RAPIDS   CLEAR     54  36  50 S7        29.98F
IONIA          FAIR      57  36  45 S5        29.99S
KALAMAZOO      CLEAR     53  40  61 CALM      30.00F
LUDINGTON      CLEAR     62  32  31 S5        29.94S
MARSHALL       CLEAR     50  41  71 CALM      30.00F
MOUNT PLEASANT CLEAR     55  39  55 CALM      29.97S
MUSKEGON       MOCLDY    59  34  39 S7        29.96F
SOUTH HAVEN    PTCLDY    56  39  53 S3        29.98F
$$
MIZ016>042-030500-
NORTHERN LOWER MICHIGAN

CITY           SKY/WX    TMP DP  RH WIND       PRES   REMARKS
ALPENA         CLEAR     43  38  82 CALM      29.93F
BEAVER ISLAND  CLOUDY    44  37  75 SE3       29.89F
BELLAIRE       MOCLDY    61  38  42 S5        29.91F
CADILLAC       CLEAR     56  36  45 S8        29.95F
CHARLEVOIX     MOCLDY    64  38  38 S10       29.92S
FRANKFORT      CLEAR     67  30  25 S8        29.91S
GAYLORD        MOCLDY    60  37  42 S7        29.93F
GRAYLING       PTCLDY    61  34  36 S3        29.95F
HARBOR SPRINGS PTCLDY    55  41  59 CALM      29.90F
HOUGHTON LAKE  PTCLDY    59  35  40 S6        29.96F
MANISTEE       CLEAR     61  34  36 CALM      29.93F
OSCODA         CLEAR     54  41  60 SW7       29.94S
PELLSTON       PTCLDY    49  41  74 CALM      29.90F
ROGERS CITY    PTCLDY    57  42  57 S5        29.92F
TRAVERSE CITY  PTCLDY    64  37  36 VRB6      29.90F
$$
MIZ007>008-015-030500-
EASTERN UPPER MICHIGAN

CITY           SKY/WX    TMP DP  RH WIND       PRES   REMARKS
KINROSS        CLEAR     52  39  62 SE5       29.90F
MACKINAC ISLAN CLEAR     42  35  76 SE7       29.89F
NEWBERRY       CLEAR     52  34  50 S10       29.89S
S. S. MARIE    PTCLDY    52  40  63 E3        29.90F
MUNISING         N/A     54  37  52 S12       29.82F
$$
MIZ004>006-011>014-085-030500-
CENTRAL UPPER MICHIGAN

CITY           SKY/WX    TMP DP  RH WIND       PRES   REMARKS
MANISTIQUE     CLEAR     46  35  67 S10       29.87F
ESCANABA       PTCLDY    54  39  58 S7        29.84S
MENOMINEE      CLEAR     59  39  47 SW9       29.85S
SAWYER-GWINN   PTCLDY    52  40  64 S5        29.84S
$$
MIZ001>003-009>011-084-030500-
WESTERN UPPER MICHIGAN

CITY           SKY/WX    TMP DP  RH WIND       PRES   REMARKS
IRON MOUNTAIN  CLEAR     59  41  51 S5        29.82S
HOUGHTON       PTCLDY    52  39  61 E5        29.79F
COPPER HARBOR    N/A     52  37  56 SW12G20   29.78F
IRONWOOD       MOCLDY    68  43  40 S7        29.76F
$$

ABBREVIATIONS USED IN REMARKS
   TC - TEMPERATURE IN CELSIUS
  WCI - WIND CHILL INDEX
   HX - HEAT INDEX
  VSB - VISIBILITY



USA.gov is the U.S. government's official web portal to all federal, state and local government web resources and services.